Overview Statistics Trail Chart Weather Telemetry Raw packets
 

This is the latest recevied weather packets stored in our database for station/object DP0GVN-13. If no packets are shown the sender has not sent any weather packets the latest 10 day(s).

<< 13 14 15 16 17 18 19 >>
Time Temp. Humidity Pressure Rain* Wind** Luminosity Snow
1777509012 -25.56° C 75% 977.6 hPa - - 0 W/m² -
1777507212 -25.56° C 76% 977.3 hPa - - 0 W/m² -
1777505412 -25° C 79% 977 hPa - - 0 W/m² -
1777503612 -25° C 82% 976.8 hPa - - 0 W/m² -
1777501812 -23.89° C 82% 976.4 hPa - - 0 W/m² -
1777500012 -22.78° C 82% 975.9 hPa - - 0 W/m² -
1777498212 -21.67° C 85% 975.4 hPa - - 0 W/m² -
1777496412 -20° C 84% 975.1 hPa - - 0 W/m² -
1777494612 -17.78° C 83% 974.9 hPa - - 0 W/m² -
1777492812 -16.67° C 84% 974.4 hPa - - 0 W/m² -
1777491012 -15.56° C 84% 974.1 hPa - - 0 W/m² -
1777489212 -15.56° C 82% 973.5 hPa - - 0 W/m² -
1777487412 -15.56° C 81% 972.9 hPa - - 0 W/m² -
1777485612 -15.56° C 80% 972.5 hPa - - 0 W/m² -
1777483812 -15.56° C 79% 972.1 hPa - - 0 W/m² -
1777482012 -15.56° C 80% 971.9 hPa - - 0 W/m² -
1777480212 -15.56° C 81% 971.9 hPa - - 0 W/m² -
1777478412 -15.56° C 82% 971.7 hPa - - 0 W/m² -
1777476612 -15.56° C 82% 971.6 hPa - - 0 W/m² -
1777474812 -15.56° C 82% 971.4 hPa - - 0 W/m² -
1777473012 -16.67° C 83% 971.5 hPa - - 0 W/m² -
1777471212 -15.56° C 80% 971.2 hPa - - 0 W/m² -
1777469412 -16.67° C 84% 970.9 hPa - - 0 W/m² -
1777467612 -16.67° C 84% 970.5 hPa - - 0 W/m² -
1777465812 -16.67° C 84% 970.1 hPa - - 0 W/m² -

* Rain since midnight (hover to see other rain measurements)
** Current wind speed in m/s (hover to see current wind gust speed)